TimeCST,TemperatureF,Dew PointF,Humidity,Sea Level PressureIn,VisibilityMPH,Wind Direction,Wind SpeedMPH,Gust SpeedMPH,PrecipitationIn,Events,Conditions,WindDirDegrees,DateUTC
12:53 AM,15.1,8.1,74,29.74,5.0,West,15.0,23.0,0.00,Snow,Light Snow,260,2013-02-19 06:53:00
1:53 AM,14.0,6.1,71,29.76,7.0,West,9.2,23.0,0.00,Snow,Light Snow,260,2013-02-19 07:53:00
2:12 AM,12.2,6.8,79,29.73,4.0,West,10.4,23.0,0.00,Snow,Light Snow,260,2013-02-19 08:12:00
2:53 AM,12.9,6.1,74,29.78,3.0,WSW,16.1,-,0.00,Snow,Light Snow,250,2013-02-19 08:53:00
3:12 AM,12.2,5.0,73,29.75,4.0,West,9.2,18.4,0.00,Snow,Light Snow,260,2013-02-19 09:12:00
3:53 AM,12.0,5.0,73,29.80,4.0,West,9.2,20.7,0.00,Snow,Light Snow,270,2013-02-19 09:53:00
4:12 AM,10.4,5.0,79,29.77,2.5,West,13.8,19.6,0.00,Snow,Light Snow,260,2013-02-19 10:12:00
4:26 AM,10.4,5.0,79,29.78,1.8,West,8.1,19.6,0.00,Snow,Light Snow,260,2013-02-19 10:26:00
4:53 AM,10.9,5.0,77,29.83,0.8,West,11.5,19.6,0.00,Snow,Light Snow,270,2013-02-19 10:53:00
5:05 AM,10.4,5.0,79,29.79,1.0,West,12.7,19.6,0.00,Snow,Light Snow,270,2013-02-19 11:05:00
5:14 AM,10.4,5.0,79,29.80,1.5,West,10.4,21.9,0.00,Snow,Light Snow,270,2013-02-19 11:14:00
5:21 AM,10.4,3.2,73,29.80,3.0,West,10.4,21.9,0.00,Snow,Light Snow,260,2013-02-19 11:21:00
5:31 AM,10.4,3.2,73,29.81,3.0,West,8.1,20.7,0.00,Snow,Light Snow,280,2013-02-19 11:31:00
5:42 AM,10.4,3.2,73,29.82,2.5,WNW,12.7,-,0.00,Snow,Light Snow,290,2013-02-19 11:42:00
5:53 AM,10.9,3.9,73,29.85,3.0,West,10.4,21.9,0.00,Snow,Light Snow,280,2013-02-19 11:53:00
6:53 AM,9.0,1.0,70,29.88,10.0,West,11.5,-,0.00,,Overcast,260,2013-02-19 12:53:00
7:53 AM,9.0,1.0,70,29.92,2.5,West,12.7,20.7,0.00,Snow,Light Snow,260,2013-02-19 13:53:00
8:09 AM,8.6,1.4,73,29.88,4.0,West,15.0,23.0,0.00,Snow,Light Snow,280,2013-02-19 14:09:00
8:16 AM,8.6,1.4,73,29.89,3.0,WNW,13.8,29.9,0.00,Snow,Light Snow,300,2013-02-19 14:16:00
8:34 AM,8.6,1.4,73,29.90,2.0,West,12.7,23.0,0.00,Snow,Light Snow,280,2013-02-19 14:34:00
8:53 AM,9.0,1.0,70,29.95,3.0,WNW,9.2,20.7,0.00,Snow,Light Snow,290,2013-02-19 14:53:00
9:53 AM,10.0,1.0,67,29.98,9.0,West,13.8,21.9,0.00,,Overcast,280,2013-02-19 15:53:00
10:53 AM,10.9,1.0,64,29.99,8.0,West,17.3,26.5,N/A,,Overcast,280,2013-02-19 16:53:00
11:41 AM,12.2,1.4,62,29.96,10.0,West,13.8,25.3,0.00,,Overcast,270,2013-02-19 17:41:00
12:53 PM,14.0,1.0,56,30.03,10.0,West,16.1,24.2,0.00,,Mostly Cloudy,280,2013-02-19 18:53:00
1:36 PM,12.2,1.4,62,30.00,10.0,WNW,12.7,24.2,N/A,,Mostly Cloudy,290,2013-02-19 19:36:00
1:53 PM,14.0,1.9,59,30.05,10.0,WNW,15.0,29.9,N/A,,Mostly Cloudy,300,2013-02-19 19:53:00
2:53 PM,15.1,1.9,56,30.08,10.0,WNW,12.7,21.9,N/A,,Overcast,300,2013-02-19 20:53:00
3:34 PM,14.0,1.4,57,30.06,10.0,WNW,15.0,23.0,N/A,,Overcast,290,2013-02-19 21:34:00
3:53 PM,14.0,1.0,56,30.12,10.0,WNW,11.5,21.9,N/A,,Mostly Cloudy,290,2013-02-19 21:53:00
4:04 PM,12.2,1.4,62,30.07,10.0,WNW,8.1,17.3,N/A,,Partly Cloudy,290,2013-02-19 22:04:00
4:53 PM,12.0,-0.0,59,30.15,10.0,WNW,18.4,27.6,N/A,,Scattered Clouds,290,2013-02-19 22:53:00
6:53 PM,9.0,-2.0,61,30.22,10.0,West,6.9,-,N/A,,Clear,280,2013-02-20 00:53:00
7:53 PM,8.1,-2.9,61,30.25,10.0,WNW,6.9,-,N/A,,Clear,290,2013-02-20 01:53:00
8:53 PM,7.0,-2.9,64,30.27,10.0,Variable,4.6,-,N/A,,Clear,0,2013-02-20 02:53:00
9:53 PM,7.0,-4.0,61,30.29,10.0,Variable,3.5,-,N/A,,Clear,0,2013-02-20 03:53:00
10:53 PM,6.1,-4.0,63,30.32,10.0,West,4.6,-,N/A,,Clear,270,2013-02-20 04:53:00
11:53 PM,5.0,-4.0,66,30.34,10.0,West,4.6,-,N/A,,Clear,270,2013-02-20 05:53:00